GW5351 Weather Reports


Display with metric or nautical units.
time (UTC)temp
F
wind
direction
speed
MPH
gust
MPH
rain 1hr
in
rain 24hr
in
rain mn
in
humidity
%
barometer
mb
20260508140915 66 32 2.0 6.0 0.00 0.00 0.00 92 1014.7
20260508140412 66 12 3.0 6.0 0.00 0.00 0.00 92 1014.6
20260508135907 66 300 2.0 4.0 0.00 0.00 0.00 92 1014.6
20260508135404 66 300 1.0 1.0 0.00 0.00 0.00 93 1014.7
20260508134900 66 214 0.0 1.0 0.00 0.00 0.00 93 1014.8
20260508134357 66 284 1.0 2.0 0.00 0.00 0.00 92 1014.5
20260508133854 66 13 4.0 6.0 0.00 0.00 0.00 92 1014.4
20260508133352 66 246 0.0 2.0 0.00 0.00 0.00 92 1014.6
20260508132848 66 178 3.0 3.0 0.00 0.00 0.00 92 1014.3
20260508132346 66 269 2.0 2.0 0.00 0.00 0.00 92 1014.3
20260508131843 66 229 1.0 3.0 0.00 0.00 0.00 92 1014.1
20260508131338 66 210 0.0 1.0 0.00 0.00 0.00 92 1014.2
20260508130835 66 261 2.0 4.0 0.00 0.00 0.00 92 1014.2
20260508130332 66 258 1.0 2.0 0.00 0.00 0.00 92 1014.2
20260508125828 66 175 1.0 1.0 0.00 0.00 0.00 92 1014.2
20260508125325 66 200 0.0 1.0 0.00 0.00 0.00 92 1014.1
20260508124822 65 211 1.0 2.0 0.00 0.00 0.00 93 1013.8
20260508124319 65 211 0.0 0.0 0.00 0.00 0.00 93 1014.1
20260508123818 65 222 0.0 2.0 0.00 0.00 0.00 93 1014.1
20260508123316 65 240 1.0 1.0 0.00 0.00 0.00 92 1014.5
20260508122812 65 241 1.0 1.0 0.00 0.00 0.00 92 1014.6
20260508122308 65 204 0.0 1.0 0.00 0.00 0.00 92 1014.7
20260508121806 65 255 1.0 4.0 0.00 0.00 0.00 91 1014.5
20260508121304 65 353 3.0 4.0 0.00 0.00 0.00 90 1014.0
20260508120801 66 261 1.0 4.0 0.00 0.00 0.00 90 1013.7
20260508120259 66 158 0.0 2.0 0.00 0.00 0.00 90 1013.9
20260508115757 66 203 1.0 4.0 0.00 0.00 0.00 89 1014.2
20260508115254 66 203 2.0 3.0 0.00 0.00 0.00 89 1014.1
20260508114750 66 192 1.0 2.0 0.00 0.00 0.00 89 1014.2
20260508114247 66 193 0.0 1.0 0.00 0.00 0.00 88 1014.6
20260508113743 66 211 0.0 0.0 0.00 0.00 0.00 88 1014.6
20260508113242 67 211 0.0 0.0 0.00 0.00 0.00 87 1014.4
20260508112738 67 189 0.0 2.0 0.00 0.00 0.00 87 1014.2
20260508112235 67 281 1.0 2.0 0.00 0.00 0.00 87 1014.4
20260508111731 67 238 0.0 0.0 0.00 0.00 0.00 87 1014.5
20260508111229 67 268 2.0 3.0 0.00 0.00 0.00 87 1014.2
20260508110726 67 292 2.0 3.0 0.00 0.00 0.00 87 1014.3
20260508110224 67 249 0.0 1.0 0.00 0.00 0.00 87 1014.2
20260508105723 67 323 2.0 3.0 0.00 0.00 0.00 87 1014.0
20260508105221 67 266 2.0 3.0 0.00 0.00 0.00 87 1013.6
20260508104718 67 302 3.0 3.0 0.00 0.00 0.00 87 1013.8
20260508104215 67 245 3.0 6.0 0.00 0.00 0.00 87 1013.7
20260508103712 67 207 0.0 4.0 0.00 0.00 0.00 87 1013.7
20260508103209 67 213 0.0 2.0 0.00 0.00 0.00 87 1013.9
20260508102706 67 237 0.0 4.0 0.00 0.00 0.00 87 1014.1
20260508102204 67 339 4.0 4.0 0.00 0.00 0.00 87 1014.2
20260508101701 67 262 1.0 2.0 0.00 0.00 0.00 87 1014.2
20260508101159 67 178 1.0 2.0 0.00 0.00 0.00 87 1014.4
20260508100656 67 329 0.0 1.0 0.00 0.00 0.00 87 1014.7
20260508100154 67 329 0.0 2.0 0.00 0.00 0.00 86 1014.6
20260508095650 67 259 0.0 2.0 0.00 0.00 0.00 86 1014.7
20260508095147 67 187 0.0 1.0 0.00 0.00 0.00 86 1014.3
20260508094644 67 186 0.0 2.0 0.00 0.00 0.00 86 1013.6
20260508094141 67 170 0.0 2.0 0.00 0.00 0.00 86 1013.6
20260508093638 67 218 0.0 1.0 0.00 0.00 0.00 86 1014.0
20260508093135 67 219 0.0 4.0 0.00 0.00 0.00 85 1014.2
20260508092633 67 251 1.0 2.0 0.00 0.00 0.00 85 1014.2
20260508092131 67 239 1.0 1.0 0.00 0.00 0.00 85 1014.0
20260508091628 67 192 1.0 3.0 0.00 0.00 0.00 85 1013.9
20260508091125 67 178 1.0 2.0 0.00 0.00 0.00 85 1013.8
20260508090623 67 47 0.0 2.0 0.00 0.00 0.00 85 1013.6
20260508090120 67 216 0.0 2.0 0.00 0.00 0.00 85 1013.7
20260508085616 67 210 0.0 0.0 0.00 0.00 0.00 85 1013.8
20260508085114 67 230 0.0 1.0 0.00 0.00 0.00 84 1013.9
20260508084610 67 218 0.0 1.0 0.00 0.00 0.00 84 1013.9
20260508084108 67 259 1.0 2.0 0.00 0.00 0.00 84 1014.0
20260508083604 67 243 0.0 2.0 0.00 0.00 0.00 84 1014.0
20260508083101 67 173 1.0 2.0 0.00 0.00 0.00 84 1014.3
20260508082557 67 234 0.0 2.0 0.00 0.00 0.00 84 1014.2
20260508082054 67 281 2.0 3.0 0.00 0.00 0.00 84 1014.1
20260508081552 67 223 0.0 0.0 0.00 0.00 0.00 83 1014.1
20260508081047 67 189 1.0 2.0 0.00 0.00 0.00 83 1014.0
20260508080546 67 235 0.0 2.0 0.00 0.00 0.00 83 1013.9
20260508080043 67 156 1.0 1.0 0.00 0.00 0.00 83 1013.9
20260508075539 67 235 1.0 2.0 0.00 0.00 0.00 83 1013.9
20260508075037 67 261 2.0 3.0 0.00 0.00 0.00 83 1014.1
20260508074535 67 199 1.0 2.0 0.00 0.00 0.00 83 1014.1
20260508074031 67 239 0.0 3.0 0.00 0.00 0.00 83 1014.4
20260508073528 67 212 0.0 1.0 0.00 0.00 0.00 83 1014.6
20260508073026 67 238 0.0 1.0 0.00 0.00 0.00 82 1014.7
20260508072522 67 217 0.0 2.0 0.00 0.00 0.00 82 1014.8
20260508072019 67 193 0.0 1.0 0.00 0.00 0.00 82 1014.7
20260508071517 67 344 1.0 4.0 0.00 0.00 0.00 82 1014.6
20260508071014 67 348 3.0 3.0 0.00 0.00 0.00 82 1014.6
20260508070512 67 283 2.0 2.0 0.00 0.00 0.00 82 1014.8
20260508070010 67 217 0.0 1.0 0.00 0.00 0.00 82 1014.7
20260508065508 67 210 0.0 2.0 0.00 0.00 0.00 82 1014.6
20260508065006 67 26 2.0 2.0 0.00 0.00 0.00 82 1014.9
20260508064503 67 205 0.0 1.0 0.00 0.00 0.00 82 1014.7
20260508064000 67 253 2.0 4.0 0.00 0.00 0.00 82 1014.9
20260508063458 67 268 2.0 4.0 0.00 0.00 0.00 82 1015.2
20260508062955 67 324 2.0 3.0 0.00 0.00 0.00 82 1014.8
20260508062453 67 313 1.0 2.0 0.00 0.00 0.00 82 1014.8
20260508061949 67 1 2.0 3.0 0.00 0.00 0.00 83 1015.0
20260508061447 67 290 2.0 2.0 0.00 0.00 0.00 82 1014.9
20260508060943 67 340 2.0 3.0 0.00 0.00 0.00 82 1014.5
20260508060441 67 243 0.0 1.0 0.00 0.00 0.00 82 1014.5
20260508055936 67 253 1.0 2.0 0.00 0.00 0.00 82 1014.4
20260508055434 67 349 2.0 2.0 0.00 0.00 0.00 82 1014.3
20260508054929 67 334 2.0 2.0 0.00 0.00 0.00 81 1014.4
20260508054427 67 221 0.0 1.0 0.00 0.00 0.00 81 1014.8
20260508053924 67 260 1.0 1.0 0.00 0.00 0.00 80 1014.8
20260508053421 67 271 1.0 3.0 0.00 0.00 0.00 80 1014.9
20260508052919 67 159 0.0 1.0 0.00 0.00 0.00 80 1014.5
20260508052416 67 155 1.0 2.0 0.00 0.00 0.00 80 1014.1
20260508051912 68 155 1.0 3.0 0.00 0.00 0.00 80 1014.2
20260508051408 68 155 2.0 3.0 0.00 0.00 0.00 80 1014.3
20260508050904 68 156 0.0 1.0 0.00 0.00 0.00 79 1014.7
20260508050401 68 156 0.0 1.0 0.00 0.00 0.00 79 1014.6
20260508045857 68 156 0.0 2.0 0.00 0.00 0.00 79 1014.5
20260508045355 68 156 0.0 2.0 0.00 0.00 0.00 79 1014.7
20260508044852 68 160 0.0 0.0 0.00 0.00 0.00 79 1014.7
20260508044349 68 160 1.0 2.0 0.00 0.00 0.00 78 1014.7
20260508043845 68 173 0.0 3.0 0.00 0.00 0.00 78 1014.5
20260508043342 68 213 0.0 2.0 0.00 0.00 0.00 78 1014.6
20260508042838 68 265 1.0 2.0 0.00 0.00 0.00 78 1014.6
20260508042337 68 236 0.0 2.0 0.00 0.00 0.00 78 1014.7
20260508041833 68 211 0.0 2.0 0.00 0.00 0.00 78 1014.7
20260508041329 68 305 3.0 4.0 0.00 0.00 0.00 77 1014.7
20260508040826 68 214 0.0 3.0 0.00 0.00 0.00 78 1014.8
20260508040324 68 203 0.0 2.0 0.00 0.00 0.00 77 1014.9
20260508035820 68 154 0.0 1.0 0.00 0.00 0.00 77 1014.8
20260508035318 68 154 0.0 2.0 0.00 0.00 0.00 77 1014.8
20260508034814 68 149 1.0 3.0 0.00 0.00 0.00 77 1014.7
20260508034312 68 156 1.0 2.0 0.00 0.00 0.00 77 1014.5
20260508033809 69 203 0.0 2.0 0.00 0.00 0.00 77 1014.7
20260508033307 68 298 3.0 6.0 0.00 0.00 0.00 76 1014.5
20260508032804 69 218 2.0 4.0 0.00 0.00 0.00 77 1014.3
20260508032305 68 7 2.0 4.0 0.00 0.00 0.00 77 1014.3
20260508031758 69 221 0.0 2.0 0.00 0.00 0.00 78 1014.6
20260508031254 69 190 0.0 1.0 0.00 0.00 0.00 78 1014.6
20260508030751 69 185 1.0 1.0 0.00 0.00 0.00 77 1014.6
20260508030248 69 310 2.0 4.0 0.00 0.00 0.00 78 1014.7
20260508025745 69 193 0.0 1.0 0.00 0.00 0.00 80 1014.7
20260508025242 69 167 1.0 2.0 0.00 0.00 0.00 80 1014.9
20260508024738 69 265 3.0 3.0 0.00 0.00 0.00 81 1015.0
20260508024235 69 338 2.0 3.0 0.00 0.00 0.00 82 1015.0
20260508023732 69 246 0.0 1.0 0.00 0.00 0.00 82 1015.1
20260508023229 69 302 1.0 2.0 0.00 0.00 0.00 83 1015.1
20260508022725 69 259 2.0 2.0 0.00 0.00 0.00 84 1014.9
20260508022222 69 255 1.0 1.0 0.00 0.00 0.00 83 1014.9
20260508021718 69 255 1.0 1.0 0.00 0.00 0.00 82 1014.8
20260508021214 69 254 0.0 1.0 0.00 0.00 0.00 82 1014.7
20260508020711 69 254 0.0 1.0 0.00 0.00 0.00 82 1014.6
20260508020208 69 255 0.0 0.0 0.00 0.00 0.00 82 1014.9
20260508015706 69 255 0.0 0.0 0.00 0.00 0.00 82 1015.3
20260508015203 69 254 0.0 0.0 0.00 0.00 0.00 82 1014.9
20260508014659 70 255 1.0 1.0 0.00 0.00 0.00 81 1014.8
20260508014155 70 238 0.0 1.0 0.00 0.00 0.00 81 1014.9
20260508013652 70 255 1.0 2.0 0.00 0.00 0.00 80 1015.0
20260508013148 70 237 0.0 0.0 0.00 0.00 0.00 80 1015.2
20260508012646 70 237 0.0 0.0 0.00 0.00 0.00 79 1014.9
20260508012143 71 245 0.0 3.0 0.00 0.00 0.00 79 1014.8
20260508011641 71 241 0.0 1.0 0.00 0.00 0.00 78 1014.8
20260508011138 71 241 0.0 0.0 0.00 0.00 0.00 77 1015.0
20260508010635 71 241 0.0 0.0 0.00 0.00 0.00 75 1014.7
20260508010133 72 240 1.0 1.0 0.00 0.00 0.00 74 1014.7
20260508005630 72 239 0.0 0.0 0.00 0.00 0.00 74 1014.6
20260508005126 72 242 0.0 1.0 0.00 0.00 0.00 73 1014.5
20260508004622 73 191 0.0 1.0 0.00 0.00 0.00 72 1014.7
20260508004119 73 217 1.0 2.0 0.00 0.00 0.00 72 1014.4
20260508003615 73 192 1.0 2.0 0.00 0.00 0.00 71 1014.5
20260508003113 73 193 0.0 3.0 0.00 0.00 0.00 71 1014.2
20260508002609 74 237 1.0 2.0 0.00 0.00 0.00 70 1014.4
20260508002107 74 254 1.0 2.0 0.00 0.00 0.00 69 1014.7
20260508001602 74 241 1.0 1.0 0.00 0.00 0.00 70 1014.6
20260508001058 74 269 1.0 3.0 0.00 0.00 0.00 69 1015.0
20260508000554 74 344 2.0 4.0 0.00 0.00 0.00 69 1015.1
20260508000052 74 18 1.0 2.0 0.00 0.00 0.00 69 1014.9
20260507235548 75 292 2.0 6.0 0.00 0.00 0.00 68 1014.8
20260507235046 75 291 1.0 4.0 0.00 0.00 0.00 70 1014.8
20260507234542 75 352 3.0 4.0 0.00 0.00 0.00 69 1014.9
20260507234039 75 301 2.0 3.0 0.00 0.00 0.00 70 1015.1
20260507233535 75 295 1.0 2.0 0.00 0.00 0.00 70 1015.0
20260507233034 75 297 2.0 3.0 0.00 0.00 0.00 68 1014.9
20260507232530 76 285 1.0 4.0 0.00 0.00 0.00 67 1015.0
20260507232028 76 313 3.0 6.0 0.00 0.00 0.00 66 1015.1
20260507231524 76 6 4.0 4.0 0.00 0.00 0.00 66 1014.6
20260507231021 76 221 2.0 4.0 0.00 0.00 0.00 66 1014.8
20260507230518 76 339 4.0 6.0 0.00 0.00 0.00 67 1014.6
20260507230014 76 280 4.0 7.0 0.00 0.00 0.00 67 1014.7
20260507225510 76 239 2.0 3.0 0.00 0.00 0.00 68 1014.8
20260507225007 76 355 4.0 6.0 0.00 0.00 0.00 69 1014.6
20260507224502 76 280 2.0 4.0 0.00 0.00 0.00 70 1014.3
20260507223959 76 347 5.0 7.0 0.00 0.00 0.00 69 1014.3
20260507223454 76 242 1.0 6.0 0.00 0.00 0.00 70 1014.2
20260507222952 76 303 3.0 6.0 0.00 0.00 0.00 69 1014.1
20260507222449 76 247 0.0 6.0 0.00 0.00 0.00 70 1014.2
20260507221945 77 252 2.0 6.0 0.00 0.00 0.00 69 1014.3
20260507221442 77 307 2.0 3.0 0.00 0.00 0.00 69 1014.2
20260507220938 76 279 1.0 6.0 0.00 0.00 0.00 69 1014.3
20260507220436 76 257 1.0 3.0 0.00 0.00 0.00 69 1014.5
20260507215932 76 347 3.0 4.0 0.00 0.00 0.00 68 1014.5
20260507215429 76 272 3.0 9.0 0.00 0.00 0.00 69 1014.5
20260507214926 76 265 1.0 3.0 0.00 0.00 0.00 69 1014.7
20260507214424 76 292 2.0 4.0 0.00 0.00 0.00 69 1014.7
20260507213919 77 354 6.0 7.0 0.00 0.00 0.00 68 1014.7
20260507213416 77 347 2.0 3.0 0.00 0.00 0.00 68 1014.8
20260507212913 76 328 4.0 7.0 0.00 0.00 0.00 69 1014.7
20260507212409 77 302 3.0 3.0 0.00 0.00 0.00 69 1014.6
20260507211906 76 284 0.0 3.0 0.00 0.00 0.00 70 1014.6
20260507211402 76 287 2.0 3.0 0.00 0.00 0.00 70 1014.8
20260507210859 76 254 2.0 6.0 0.00 0.00 0.00 71 1014.8
20260507210356 76 283 3.0 6.0 0.00 0.00 0.00 70 1014.8
20260507205853 76 11 6.0 7.0 0.00 0.00 0.00 70 1015.1
20260507205349 76 213 1.0 4.0 0.00 0.00 0.00 69 1015.1
20260507204846 76 325 4.0 7.0 0.00 0.00 0.00 69 1015.2
20260507204343 77 346 7.0 11.0 0.00 0.00 0.00 67 1015.0
20260507203841 77 265 2.0 4.0 0.00 0.00 0.00 69 1015.2
20260507203339 76 331 4.0 6.0 0.00 0.00 0.00 70 1015.4
20260507202834 75 42 4.0 8.0 0.00 0.00 0.00 70 1015.3
20260507202331 76 31 5.0 7.0 0.00 0.00 0.00 70 1015.1
20260507201826 75 335 1.0 4.0 0.00 0.00 0.00 71 1015.3
20260507201322 75 313 1.0 6.0 0.00 0.00 0.00 71 1015.3
20260507200819 76 177 4.0 7.0 0.00 0.00 0.00 70 1015.5
20260507200315 75 37 4.0 6.0 0.00 0.00 0.00 70 1015.7
20260507195811 76 47 4.0 9.0 0.00 0.00 0.00 69 1015.5
20260507195309 75 219 2.0 6.0 0.00 0.00 0.00 72 1015.7
20260507194806 75 272 2.0 6.0 0.00 0.00 0.00 72 1016.1
20260507194302 75 315 2.0 10.0 0.00 0.00 0.00 73 1015.9
20260507193758 75 357 3.0 4.0 0.00 0.00 0.00 71 1015.7
20260507193255 76 311 3.0 7.0 0.00 0.00 0.00 71 1015.6
20260507192751 75 159 2.0 4.0 0.00 0.00 0.00 72 1015.7
20260507192248 75 5 2.0 4.0 0.00 0.00 0.00 71 1015.8
20260507191744 74 261 3.0 4.0 0.00 0.00 0.00 71 1015.9
20260507191241 73 242 4.0 6.0 0.00 0.00 0.00 73 1016.2
20260507190738 74 314 3.0 7.0 0.00 0.00 0.00 73 1016.3
20260507190237 73 328 5.0 7.0 0.00 0.00 0.00 73 1016.5
20260507185735 73 314 4.0 7.0 0.00 0.00 0.00 72 1016.7
20260507185231 73 346 3.0 4.0 0.00 0.00 0.00 73 1016.9
20260507184729 72 304 2.0 3.0 0.00 0.00 0.00 76 1016.8
20260507184227 72 178 2.0 9.0 0.00 0.00 0.00 75 1016.5
20260507183723 72 6 3.0 6.0 0.00 0.00 0.00 75 1016.6
20260507183220 72 0 4.0 8.0 0.00 0.00 0.00 76 1016.8
20260507182717 72 337 5.0 9.0 0.00 0.00 0.00 75 1016.8
20260507182212 73 231 1.0 4.0 0.00 0.00 0.00 73 1016.8
20260507181709 71 12 1.0 7.0 0.00 0.00 0.00 75 1016.9
20260507181206 72 300 3.0 9.0 0.00 0.00 0.00 75 1016.8
20260507180702 71 343 4.0 7.0 0.00 0.00 0.00 76 1017.0
20260507180159 71 12 5.0 8.0 0.00 0.00 0.00 77 1017.1
20260507175655 70 317 4.0 9.0 0.00 0.00 0.00 78 1017.0
20260507175147 70 314 4.0 8.0 0.00 0.00 0.00 77 1017.1
20260507174644 72 329 3.0 3.0 0.00 0.00 0.00 76 1017.1
20260507174142 69 255 0.0 4.0 0.00 0.00 0.00 79 1017.4
20260507173639 69 279 2.0 7.0 0.00 0.00 0.00 79 1017.7
20260507173136 69 343 3.0 9.0 0.00 0.00 0.00 79 1017.8
20260507172632 69 250 2.0 3.0 0.00 0.00 0.00 79 1017.7
20260507172130 69 245 2.0 3.0 0.00 0.00 0.00 78 1017.9
20260507171629 69 252 1.0 6.0 0.00 0.00 0.00 78 1017.8
20260507171127 69 243 1.0 3.0 0.00 0.00 0.00 79 1017.8
20260507170624 69 241 2.0 4.0 0.00 0.00 0.00 79 1017.6
20260507170121 69 237 1.0 7.0 0.00 0.00 0.00 79 1017.5
20260507165616 69 285 1.0 3.0 0.00 0.00 0.00 78 1017.5
20260507165113 68 287 2.0 4.0 0.00 0.00 0.00 80 1017.7
20260507164609 67 356 3.0 3.0 0.00 0.00 0.00 80 1017.5
20260507164106 67 0 4.0 8.0 0.00 0.00 0.00 81 1017.6
20260507163604 67 332 3.0 9.0 0.00 0.00 0.00 81 1017.4
20260507163102 67 0 7.0 10.0 0.00 0.00 0.00 81 1017.2
20260507162601 67 248 2.0 6.0 0.00 0.00 0.00 81 1017.2
20260507162059 67 342 4.0 4.0 0.00 0.00 0.00 80 1017.1
20260507161555 68 129 3.0 7.0 0.00 0.00 0.00 80 1017.2
20260507161051 67 295 3.0 6.0 0.00 0.00 0.00 81 1017.0
20260507160548 66 217 3.0 6.0 0.00 0.00 0.00 81 1017.0
20260507160044 65 206 2.0 6.0 0.00 0.00 0.00 83 1016.8
20260507155539 65 221 2.0 7.0 0.00 0.00 0.00 83 1017.0
20260507155037 64 287 1.0 8.0 0.00 0.00 0.00 84 1016.8
20260507154534 64 331 6.0 11.0 0.00 0.00 0.00 84 1017.2
20260507154031 65 151 2.0 6.0 0.00 0.00 0.00 83 1017.3
20260507153528 64 5 4.0 11.0 0.00 0.00 0.00 85 1017.2
20260507153024 63 300 3.0 9.0 0.00 0.00 0.00 86 1017.4
20260507152520 64 350 5.0 8.0 0.00 0.00 0.00 85 1017.6
20260507152016 64 354 6.0 10.0 0.00 0.00 0.00 85 1017.4
20260507151513 63 8 6.0 10.0 0.00 0.00 0.00 86 1017.3
20260507151010 63 290 6.0 9.0 0.00 0.00 0.00 87 1017.2
20260507150506 63 337 3.0 8.0 0.00 0.00 0.00 87 1017.3
20260507150003 62 28 3.0 6.0 0.00 0.00 0.00 88 1017.0
20260507145458 62 350 4.0 7.0 0.00 0.00 0.00 88 1016.9
20260507144956 62 349 5.0 10.0 0.00 0.00 0.00 88 1017.0
20260507144452 62 283 2.0 6.0 0.00 0.00 0.00 89 1017.1
20260507143949 62 324 3.0 9.0 0.00 0.00 0.00 89 1017.1
20260507143447 62 336 2.0 9.0 0.00 0.00 0.00 90 1017.2
20260507142943 62 13 4.0 8.0 0.00 0.00 0.00 90 1017.1
20260507142439 62 358 6.0 8.0 0.00 0.00 0.00 91 1017.2
20260507141937 61 6 3.0 9.0 0.00 0.00 0.00 91 1017.0
20260507141432 61 270 2.0 3.0 0.00 0.00 0.00 92 1017.3